RH
44 43 39 40 48 52 60 70 66 62 69 68 53 51 59 57 54 61 70 79 79 71 73 79 79 79 78 77 78 78 80 87 88 86 88 88 87 85 82 82 84 82 81 82 76 67 66 69 71 75 81 86 91 93 94 96 94 92 93 92 90 89 87 83 81 78 75 73 70 69 69 66 65 66 65 62 61 63 68 69 65 61 63 66 64 60 62
47 48 47 47 52 56 62 73 75 69 73 75 67 73 81 66 61 77 82 79 80 73 71 76 74 72 73 72 75 80 83 89 91 91 92 92 91 88 83 82 82 79 78 76 70 62 59 60 62 64 69 74 80 88 93 92 90 89 88 87 86 86 84 82 81 78 76 74 72 72 72 70 70 70 68 68 70 72 73 70 64 60 63 66 65 65 68
60 60 65 63 60 63 64 69 77 73 65 70 76 79 82 76 73 77 78 81 79 68 67 72 66 63 67 67 73 81 85 89 90 91 95 95 92 90 86 85 83 81 79 73 65 59 53 51 52 52 55 59 62 71 82 88 88 88 88 87 86 85 83 80 79 76 74 74 74 76 76 75 74 71 72 74 73 73 74 73 72 72 74 76 76 75 74
65 60 68 74 68 64 65 69 79 81 71 72 79 80 80 77 72 70 74 80 76 68 69 68 60 60 63 65 71 76 80 87 88 89 92 92 91 91 87 86 87 86 85 81 72 63 54 49 47 45 45 47 48 51 60 72 80 80 81 82 82 82 82 81 78 76 74 73 75 77 77 75 74 74 76 77 75 75 75 75 75 73 72 77 80 77 74
61 59 65 69 62 58 66 72 76 80 80 76 75 75 77 77 76 75 75 75 73 71 71 66 61 62 63 64 68 70 74 81 83 85 88 87 89 91 88 86 87 86 84 79 71 64 58 54 51 48 43 41 43 42 42 49 58 59 58 61 65 67 71 77 79 77 78 78 76 78 80 80 80 77 75 74 73 70 67 64 63 62 64 71 75 75 75
55 61 69 61 54 60 71 77 77 77 76 74 74 75 76 75 74 74 73 72 69 68 69 67 64 62 61 61 61 61 66 69 69 72 77 79 80 82 81 79 81 85 81 71 63 58 54 52 48 46 44 42 42 42 39 38 41 41 40 42 45 46 48 56 61 59 61 64 63 68 74 75 70 61 57 58 58 55 52 50 52 54 56 59 61 64 68
63 64 68 59 59 69 74 78 80 73 67 66 66 67 70 73 72 69 67 66 65 67 67 64 61 58 54 52 53 55 59 62 62 61 63 67 69 69 70 69 68 72 74 74 72 62 53 51 48 42 42 42 41 41 41 41 42 40 38 37 38 38 36 38 39 37 37 39 41 46 51 52 49 46 47 49 46 43 42 41 41 43 44 45 46 49 54
60 59 64 64 65 69 70 73 74 68 68 71 68 63 62 67 72 71 65 63 64 64 63 63 65 62 53 46 48 52 56 60 63 64 63 65 66 65 65 63 58 54 56 63 66 56 46 46 44 38 39 42 42 41 40 41 43 42 41 41 41 40 38 36 36 34 32 31 33 36 37 39 41 43 43 41 38 37 37 35 35 36 37 38 39 38 41
66 75 82 81 78 78 74 72 71 68 68 72 75 72 62 60 70 70 61 62 63 59 61 67 72 74 65 53 47 48 53 59 61 61 61 60 59 55 51 49 47 42 40 42 41 36 34 35 35 34 35 37 39 39 38 39 40 40 40 41 42 42 40 38 37 35 34 34 33 34 35 37 37 36 36 35 35 35 34 31 30 29 28 29 30 31 32
77 93 98 96 96 94 83 74 73 72 71 72 77 79 64 57 69 71 63 64 65 60 61 63 70 78 72 57 51 51 52 57 59 59 56 51 50 48 45 44 43 41 39 37 34 32 31 30 30 31 31 31 33 35 37 37 38 41 42 42 42 43 41 39 38 36 35 35 36 36 35 34 33 33 33 33 34 34 33 31 31 30 28 28 30 33 32
71 82 92 97 97 92 84 79 77 75 78 79 77 79 70 58 64 71 65 63 65 63 61 60 68 79 72 59 60 60 54 55 59 59 56 52 48 47 46 45 45 44 44 42 39 37 35 33 33 32 30 31 31 31 34 35 35 37 40 41 42 43 41 38 38 38 36 34 35 36 36 35 35 35 34 34 35 35 35 35 36 36 35 34 37 39 38
75 79 89 96 93 86 80 79 79 76 77 73 69 78 79 63 60 68 64 60 62 63 64 63 65 70 68 62 62 59 55 55 56 56 57 55 52 50 49 48 48 48 48 46 44 43 42 40 39 37 34 32 31 31 32 32 32 33 34 35 37 41 43 41 40 40 40 37 36 36 36 37 38 38 38 37 37 38 39 38 37 39 40 39 40 42 41
92 93 96 98 96 86 73 72 74 68 65 67 72 84 85 66 57 63 63 60 59 59 63 63 56 54 60 63 62 60 62 65 62 60 59 57 55 55 53 52 51 51 50 49 47 45 44 44 43 42 40 37 35 34 32 31 31 32 32 32 31 33 37 41 42 42 40 38 38 37 37 37 37 39 40 39 38 37 37 38 40 42 42 42 44 45 43
96 94 96 98 93 79 71 74 73 64 67 76 77 77 76 66 59 60 62 62 61 61 63 61 55 57 66 71 70 69 72 75 73 68 64 62 61 61 59 57 57 58 57 54 51 48 45 46 46 45 45 43 40 39 36 33 32 32 33 34 33 32 31 33 36 38 38 36 36 36 36 37 37 39 39 37 37 36 37 41 44 46 46 46 47 47 45
92 95 96 98 90 75 71 76 74 71 78 79 70 66 71 70 65 63 64 64 64 66 67 65 66 71 75 78 78 78 80 82 80 75 73 72 71 70 70 68 66 67 67 62 57 54 49 47 46 46 47 47 46 44 42 38 35 36 36 36 37 37 34 32 32 32 33 35 35 34 35 35 35 37 37 35 35 36 38 44 48 50 51 50 50 49 48
92 97 94 87 80 76 77 77 73 73 74 69 67 71 73 72 71 70 69 70 72 72 71 72 76 78 79 83 86 86 87 86 84 83 81 80 79 78 78 76 74 74 76 72 68 63 57 54 52 49 48 49 48 48 46 43 43 42 41 40 40 39 38 37 35 34 34 35 36 36 35 34 35 36 36 36 36 36 37 42 46 48 50 50 51 51 51
88 91 87 81 81 84 84 81 78 77 76 77 80 81 77 78 80 77 75 77 79 79 77 78 82 84 86 90 90 89 91 90 88 88 85 82 82 80 78 76 74 74 77 78 77 73 68 65 63 59 58 59 58 55 50 47 48 47 45 45 44 42 42 40 38 38 38 38 39 38 37 36 37 37 36 36 37 37 39 42 44 46 48 50 52 54 54
81 82 80 80 85 85 80 81 83 81 80 81 82 81 81 83 82 80 79 80 82 85 86 87 90 91 93 95 93 91 93 91 87 86 85 83 82 81 80 78 76 75 77 78 79 78 74 70 69 68 67 68 68 65 59 55 54 53 50 49 47 44 44 43 41 40 40 39 41 42 41 39 38 37 37 37 36 37 40 42 43 45 48 52 55 57 59
81 83 77 75 79 78 76 79 80 78 81 82 80 80 81 83 84 85 86 85 87 91 93 94 95 94 94 96 94 91 91 91 88 86 86 85 83 82 82 81 78 80 81 81 82 82 79 76 75 73 72 71 71 70 68 65 62 58 56 55 52 48 45 45 45 44 42 41 41 42 44 43 41 39 38 37 37 37 38 40 44 46 49 52 55 57 61
85 80 75 76 81 81 82 84 80 79 84 87 87 88 87 87 90 91 89 90 93 94 94 95 94 91 91 93 92 91 91 90 89 88 86 86 85 84 81 80 79 82 85 86 85 86 84 82 80 79 77 75 72 71 71 70 69 67 63 59 56 54 49 46 47 48 47 45 44 43 44 44 43 42 40 38 38 37 36 37 40 43 46 48 49 52 57
83 74 74 79 82 81 81 82 81 83 87 90 92 93 92 91 92 93 90 90 91 89 90 92 91 90 90 91 90 93 94 91 90 90 89 88 88 86 82 81 82 83 86 87 87 87 87 86 85 84 81 77 74 73 70 69 69 71 71 68 66 63 57 52 51 52 52 51 48 47 46 45 44 44 44 42 40 38 37 38 38 40 42 42 41 43 49
78 74 76 78 80 81 79 79 81 84 88 92 92 91 91 92 94 94 91 86 83 82 82 84 90 92 91 90 92 94 95 94 92 92 91 90 89 87 84 82 82 83 84 86 87 89 89 89 90 90 89 86 83 81 78 74 71 70 71 73 73 71 68 62 57 56 57 56 53 51 50 49 49 49 49 49 47 45 44 44 43 43 41 39 40 43 47
69 68 74 78 81 82 78 79 86 89 91 93 91 88 92 94 93 93 92 87 84 84 81 80 86 93 93 93 95 97 96 94 92 90 90 91 89 86 84 82 81 82 83 85 87 88 89 91 92 93 95 96 95 94 91 87 84 78 74 73 73 72 72 70 64 60 59 59 58 56 54 53 53 54 54 54 51 48 47 47 48 46 41 41 46 50 51
60 67 80 84 84 82 79 83 92 94 91 90 91 92 95 93 88 88 89 86 85 88 88 84 83 89 94 95 95 98 97 94 91 90 89 88 86 85 86 85 86 88 89 90 92 93 94 96 96 95 97 97 97 97 96 94 94 92 87 83 80 75 72 71 69 66 63 60 60 60 60 58 57 57 58 58 55 52 51 51 49 47 46 49 55 59 60
63 75 89 89 85 86 89 90 92 92 89 89 91 94 92 87 82 82 83 84 84 85 88 88 86 88 94 95 95 98 97 92 90 91 90 88 87 88 90 92 93 96 97 98 98 99 99 99 99 99 99 98 96 97 97 96 98 99 96 93 90 84 77 73 70 70 68 64 60 61 63 63 61 59 57 55 53 54 57 59 57 57 62 65 66 67 70
78 84 91 90 89 92 92 89 89 88 87 88 89 90 87 82 79 79 79 80 81 82 85 90 90 89 93 96 97 97 95 91 90 90 91 91 90 91 94 98 99 100 101 100 100 100 100 100 100 100 100 99 98 99 99 99 100 100 100 99 97 93 87 81 74 71 71 68 64 62 62 63 65 63 59 56 56 60 65 70 73 77 80 78 75 76 78
87 86 84 85 91 93 90 89 89 86 83 83 83 83 82 78 74 74 76 76 78 81 83 86 88 90 94 97 98 97 96 93 90 90 91 93 94 96 98 100 100 100 100 99 99 99 100 100 100 101 100 100 100 100 100 101 100 100 100 101 100 98 96 90 83 77 73 71 69 64 61 60 63 65 67 68 71 71 71 72 79 87 89 86 83 84 82
85 84 81 79 85 90 88 86 85 84 81 80 76 75 76 75 75 79 84 83 82 84 83 80 84 93 97 98 98 97 95 94 93 94 95 95 98 100 100 100 101 101 99 98 98 99 100 100 100 101 100 100 100 100 100 100 100 100 100 100 100 101 100 97 92 85 78 74 72 68 63 59 58 60 66 72 77 79 77 77 81 88 91 90 88 86 84
83 88 88 84 83 87 87 83 83 87 87 83 79 78 79 81 85 91 93 90 88 91 87 80 81 90 96 98 98 97 96 97 98 98 98 99 100 101 100 101 100 97 96 97 98 99 100 101 100 100 99 99 100 101 100 100 100 100 101 100 100 100 101 100 98 93 85 78 74 70 65 61 58 59 64 71 79 83 84 84 86 88 90 91 89 85 80
87 91 92 91 88 87 86 85 86 90 91 88 87 86 85 87 92 94 92 91 91 93 89 83 83 89 94 96 98 99 99 100 100 99 100 101 100 100 100 100 98 95 95 97 98 99 101 101 100 100 100 99 100 101 100 100 101 100 100 101 100 100 101 101 100 98 92 84 78 73 69 65 63 62 65 72 82 86 86 86 88 89 88 88 85 81 76
93 94 91 91 90 84 84 89 90 91 93 94 92 91 90 92 94 93 92 93 92 90 89 87 87 88 91 93 96 97 98 99 99 99 99 99 98 100 101 100 99 98 98 98 97 98 99 100 100 100 100 100 101 101 100 100 101 100 100 101 100 100 101 100 100 101 97 88 81 77 73 70 68 67 68 75 84 89 89 88 88 87 86 84 82 78 73
92 94 90 90 92 86 86 93 93 90 92 94 92 89 89 89 90 90 91 90 88 87 91 92 86 81 86 93 94 94 95 98 98 99 98 95 95 98 98 96 95 95 95 95 95 95 97 100 100 99 100 100 100 100 101 100 100 100 100 100 100 100 101 100 100 100 97 91 85 81 78 75 73 71 72 77 84 87 87 87 86 85 84 82 80 77 73
89 94 91 91 94 91 90 93 91 88 89 90 88 87 85 84 87 89 88 88 88 90 93 89 77 72 81 91 92 92 96 98 98 99 98 94 92 94 94 92 91 90 90 92 92 90 93 97 97 95 99 101 100 100 101 100 100 100 100 100 101 100 100 100 100 100 98 94 88 84 80 78 75 73 75 79 83 82 82 84 84 83 81 80 79 76 72
82 87 87 87 89 87 86 88 89 90 90 87 85 85 83 83 86 86 85 88 91 89 84 75 65 68 80 86 84 88 96 100 100 100 99 95 93 92 90 88 86 85 86 87 86 84 86 90 92 94 98 100 100 101 100 100 101 101 100 100 101 100 100 101 101 100 99 97 93 89 86 83 82 80 81 83 82 79 79 81 80 78 78 79 77 75 71
75 79 83 82 80 79 80 81 83 88 89 86 85 82 78 79 81 81 81 85 83 77 71 63 60 70 81 79 75 82 94 98 99 99 97 95 94 93 90 87 84 81 79 80 80 81 83 86 89 92 95 98 100 101 100 100 100 101 100 100 101 100 100 100 100 100 100 100 99 98 95 92 90 87 84 82 80 77 77 77 76 76 78 79 77 76 74
76 81 86 82 76 75 75 71 71 74 77 79 80 77 74 74 72 69 70 70 64 61 60 54 53 67 79 73 69 79 89 93 94 94 92 93 94 93 91 90 88 85 82 79 78 79 81 84 86 88 91 95 99 100 100 100 101 100 100 100 100 100 100 101 100 100 99 97 95 94 91 88 86 83 80 78 76 74 74 75 76 78 80 78 75 73 71
76 78 79 74 69 70 70 65 63 65 68 72 74 74 73 70 59 51 53 54 49 48 50 47 51 68 77 68 65 76 85 87 89 90 88 89 92 92 90 89 89 89 89 85 80 78 79 81 84 86 87 91 94 97 99 99 99 100 100 99 97 96 96 96 95 95 94 91 88 86 84 82 80 79 77 75 74 73 73 74 75 77 76 73 69 68 65
75 74 71 67 65 65 63 62 63 66 70 73 71 68 69 66 53 44 46 48 44 44 45 46 56 70 70 60 61 74 79 79 82 85 86 88 89 89 88 87 87 90 90 86 80 77 77 78 80 82 85 87 90 92 94 95 95 97 98 97 96 96 95 96 97 97 96 94 91 89 87 86 84 83 81 78 75 74 73 71 70 71 71 69 66 64 61
78 78 75 72 70 66 62 63 66 68 70 72 68 64 64 62 51 42 42 45 44 44 44 47 59 70 65 56 60 71 74 74 77 80 83 85 85 84 83 81 80 82 82 80 76 75 75 75 76 79 82 85 86 87 89 90 91 92 93 94 94 94 94 95 96 97 97 96 94 92 91 90 88 85 83 79 76 74 73 72 71 70 69 67 65 62 58
82 80 78 76 73 70 67 67 66 66 66 68 66 63 61 59 50 41 40 43 44 44 42 44 54 64 62 57 61 69 72 71 72 74 76 77 77 77 76 74 71 71 72 72 72 73 72 71 73 76 80 83 83 83 85 86 87 88 90 91 92 92 92 92 92 93 93 93 92 92 92 91 89 87 86 84 84 82 81 80 78 75 72 70 67 64 63
79 77 78 77 75 71 69 66 64 64 64 65 63 59 59 57 49 41 39 40 41 44 44 41 43 52 57 57 61 68 70 68 68 69 70 71 73 76 78 75 69 67 67 69 70 70 70 69 71 74 78 81 82 82 82 82 83 85 87 88 89 90 90 91 91 91 91 91 91 92 93 92 91 91 91 90 90 89 86 84 81 78 75 73 70 69 71
76 75 79 80 76 73 70 67 65 64 62 59 56 56 57 55 46 38 37 39 40 44 46 42 39 43 51 56 60 65 68 67 66 66 68 70 75 80 80 74 67 65 66 67 67 67 68 70 71 73 76 78 80 81 80 80 81 83 85 86 87 88 89 91 93 93 93 93 93 93 93 92 92 93 92 91 91 91 88 85 83 81 79 78 77 78 79
72 72 76 77 75 73 69 65 65 65 61 56 53 54 57 55 45 38 37 39 40 43 46 43 40 41 47 53 59 63 65 67 67 65 64 66 70 74 76 73 66 64 65 67 66 67 69 71 72 72 73 74 75 77 78 79 80 82 83 85 87 88 89 91 93 93 93 93 93 93 92 91 91 91 91 90 91 91 90 88 87 86 85 84 84 84 84
71 71 72 71 70 71 69 67 68 69 64 58 53 55 57 54 45 39 38 38 39 43 46 45 43 41 43 48 52 55 58 64 66 63 60 60 61 63 68 70 66 63 64 68 69 69 70 71 72 71 71 71 71 72 74 76 78 79 80 81 83 85 86 88 90 91 92 93 93 93 92 91 90 91 92 91 91 91 91 90 90 90 89 88 88 88 88
73 71 67 66 69 71 71 69 68 65 62 59 56 56 58 53 44 39 38 38 38 40 42 44 45 44 42 42 42 43 50 59 62 59 59 63 64 63 65 68 67 64 65 70 73 72 71 72 72 70 69 69 69 69 70 72 74 75 76 77 78 80 81 82 84 85 86 88 89 90 90 90 90 90 90 90 90 91 92 92 91 91 90 89 90 90 90
74 71 68 70 71 68 64 64 63 62 64 65 62 59 58 53 44 39 39 38 38 38 38 39 42 44 44 43 40 39 45 55 61 60 62 66 66 64 64 67 67 65 65 69 74 75 73 71 70 69 67 67 66 66 67 68 68 68 69 71 74 77 79 81 82 82 82 82 84 84 85 86 88 89 90 91 91 91 92 92 92 93 93 93 94 95 96
73 75 75 73 67 60 60 66 69 69 71 72 68 63 59 54 47 41 38 38 38 38 36 34 37 41 44 46 44 40 41 49 56 61 66 68 66 63 63 65 66 66 66 69 73 76 75 74 73 70 68 67 66 66 67 67 65 64 64 65 69 75 78 79 80 80 80 79 80 81 81 82 84 85 86 89 91 93 93 94 95 97 98 98 98 99 99
66 70 69 64 60 61 66 73 76 74 74 72 67 62 60 58 52 44 39 39 39 38 35 33 33 36 40 45 46 44 43 43 45 51 60 65 64 60 60 62 64 65 66 69 71 73 74 75 74 73 70 69 68 70 72 71 70 68 67 68 71 77 81 82 81 81 82 82 83 85 88 90 92 92 92 93 95 96 96 96 98 100 100 100 100 101 101
53 58 60 62 66 70 75 80 81 78 75 71 66 62 62 61 54 45 40 39 39 38 35 33 32 33 36 40 43 45 46 44 40 41 51 60 60 57 58 61 62 61 63 66 69 70 71 72 72 72 73 72 73 74 76 77 77 77 76 75 75 77 80 81 82 82 83 86 89 91 94 96 97 98 98 99 100 100 100 100 100 100 100 100 100 101 100
48 54 61 67 70 69 71 76 78 74 69 68 67 65 63 61 55 48 42 39 38 38 37 34 32 33 34 35 37 42 47 48 43 42 50 59 61 59 59 60 61 60 61 62 64 66 67 69 71 73 75 77 79 79 78 79 81 82 81 79 77 75 73 73 73 71 69 69 73 80 89 96 99 100 101 101 100 100 100 100 100 100 101 101 101 101 101
50 51 53 54 53 53 55 58 58 56 58 63 66 67 65 62 58 54 48 42 39 38 38 35 34 34 34 33 33 37 42 44 42 43 51 59 62 61 60 59 59 61 62 62 61 62 63 65 69 73 75 76 79 81 81 81 81 81 80 80 79 75 72 69 66 61 55 49 47 50 57 64 72 81 90 95 98 100 101 102 101 100 100 100 100 100 99
48 49 48 46 48 52 56 57 57 59 63 66 68 68 68 65 62 59 55 48 43 40 38 37 36 35 35 34 33 33 34 34 35 40 47 55 59 61 61 59 57 59 62 62 61 60 61 62 65 69 71 72 74 78 80 80 79 78 78 78 77 74 70 67 63 60 58 56 52 49 46 41 38 40 48 57 68 77 86 92 96 98 99 100 101 101 101
Wind_Speed
6 5 5 6 6 4 4 4 4 4 6 7 6 3 2 2 5 4 2 5 5 3 5 5 5 5 4 5 5 4 5 5 5 7 7 7 7 7 7 7 6 6 6 6 9 13 14 13 12 10 9 8 8 8 9 9 10 10 10 11 11 12 12 13 14 16 17 17 16 15 16 18 19 19 16 15 14 13 12 13 12 13 14 15 16 20 23
6 7 6 7 8 6 5 6 6 5 8 9 7 3 3 4 4 4 7 11 6 3 4 5 5 4 3 5 6 7 7 7 7 8 8 7 7 7 7 7 6 6 6 7 11 14 16 16 17 15 13 11 9 7 6 6 7 8 9 9 10 10 10 11 13 14 14 15 16 16 16 16 16 15 15 14 13 12 11 11 11 12 15 16 18 21 20
4 6 5 6 7 5 4 5 6 5 8 9 7 4 4 5 5 4 8 11 7 3 3 4 5 4 6 9 10 9 8 7 8 10 9 8 8 7 7 7 7 7 7 10 13 15 16 18 18 17 15 13 10 8 6 3 3 4 5 6 8 8 9 9 11 12 12 12 14 15 15 15 15 14 14 13 11 10 10 9 9 10 12 13 15 17 18
2 3 1 1 4 6 4 3 5 6 5 5 4 2 2 2 4 4 6 7 3 1 3 4 5 8 11 11 9 8 7 7 9 10 9 8 8 7 7 7 8 8 8 10 13 15 18 21 22 21 18 15 12 11 8 5 3 2 1 2 3 5 6 7 9 9 9 10 12 14 14 13 12 11 11 11 10 9 7 7 7 8 9 10 11 13 15
3 1 2 4 5 6 2 2 2 3 3 5 5 4 4 2 3 5 4 3 4 2 1 4 7 10 11 9 7 7 7 7 9 9 8 8 7 6 6 7 7 7 7 9 13 16 18 20 22 23 22 19 17 14 10 7 4 2 1 1 2 3 3 5 6 6 7 7 9 10 11 10 9 7 7 7 6 6 5 5 7 8 8 8 7 9 11
4 2 2 4 4 4 3 5 3 1 2 5 7 5 4 5 3 3 4 4 3 3 4 6 8 8 7 6 6 5 5 6 8 8 8 8 7 7 8 8 8 9 10 11 14 16 16 17 19 20 20 20 19 16 13 11 9 6 3 2 3 3 3 4 4 5 6 6 6 7 7 8 7 6 5 5 5 6 6 7 7 6 5 5 4 5 5
4 1 3 4 3 4 3 4 2 3 5 7 11 9 5 6 6 5 6 6 5 5 5 6 7 7 7 7 7 7 6 6 7 8 8 8 8 8 8 8 10 13 16 16 17 18 18 16 16 17 17 16 16 16 15 14 14 12 9 6 4 3 1 1 2 3 4 5 5 6 7 7 8 7 7 8 9 10 10 10 9 8 7 6 5 4 2
3 2 3 3 3 3 2 4 3 3 3 4 8 8 6 5 5 3 4 4 3 4 3 2 3 4 5 6 7 7 6 6 6 7 6 6 7 7 6 8 10 14 15 15 15 17 17 17 16 15 14 13 12 12 12 12 12 12 10 9 7 6 5 3 2 2 3 3 3 5 6 6 7 9 11 12 13 13 11 10 8 7 6 5 4 3 2
3 4 2 0 3 2 2 1 1 1 0 1 3 5 2 3 4 1 3 3 2 2 2 2 2 2 4 6 6 6 6 6 5 5 5 5 6 7 8 10 12 14 14 14 14 14 15 16 17 16 15 12 11 10 9 9 9 8 7 8 8 6 5 3 2 3 4 4 4 5 6 7 9 10 11 11 11 10 10 9 7 5 4 3 3 3 3
3 5 3 2 3 1 5 4 3 2 2 3 4 5 2 3 4 3 2 4 3 3 3 4 3 3 5 5 4 5 6 6 5 6 7 8 9 10 11 12 13 14 14 13 13 13 13 14 16 16 15 14 12 11 9 9 10 9 9 9 9 7 4 4 3 2 2 5 7 8 9 9 9 9 9 9 9 9 8 7 6 5 4 5 4 4 5
2 5 4 3 3 4 5 5 5 5 3 3 4 5 1 2 4 4 3 4 4 4 4 3 3 4 4 1 3 4 5 6 6 6 8 11 13 13 13 13 13 13 13 12 11 12 13 13 14 14 14 14 13 12 11 12 12 12 12 11 10 7 2 2 2 4 2 1 4 7 9 11 11 10 9 9 9 9 8 6 4 5 5 3 2 4 7
2 4 3 2 2 3 3 4 6 5 1 4 6 2 4 3 3 3 3 5 3 2 3 3 5 5 3 3 4 4 3 4 5 5 7 10 13 14 15 15 14 13 13 12 12 12 11 11 12 12 13 13 13 12 13 13 13 13 13 13 12 11 10 8 9 10 10 7 4 3 5 7 9 9 9 9 8 8 6 5 4 4 4 1 1 3 6
3 4 3 0 2 3 2 4 6 4 2 4 3 4 6 2 1 1 3 4 2 2 4 4 4 2 1 2 3 4 4 5 6 8 10 12 13 14 15 16 17 17 16 14 13 12 10 10 11 12 12 12 12 12 12 13 14 14 13 13 13 14 15 16 18 18 18 16 14 12 10 10 9 8 8 8 8 7 7 7 6 6 5 3 3 2 4
2 3 3 1 2 2 2 4 6 3 3 4 4 4 4 2 1 1 3 3 2 2 4 3 1 2 4 3 4 5 5 5 6 10 14 15 16 17 17 17 18 19 18 17 15 14 12 10 11 11 12 13 13 12 12 13 14 14 14 13 13 13 14 16 18 20 19 18 17 16 15 15 13 12 12 11 11 10 9 9 8 8 7 5 5 4 3
2 3 3 2 2 2 3 3 4 3 2 4 4 2 2 1 1 2 3 3 3 3 3 3 2 4 5 5 5 6 5 5 7 10 12 13 13 15 17 18 18 18 18 18 18 17 14 12 12 12 12 13 14 13 14 14 14 14 15 14 14 14 14 14 15 17 19 19 18 17 17 16 16 16 16 15 13 12 11 10 10 9 8 7 6 6 4
2 2 1 2 3 4 4 1 1 1 2 3 3 2 2 2 2 3 3 3 4 3 2 3 3 3 4 4 5 5 5 6 8 10 12 13 13 14 16 17 18 18 18 18 19 18 16 14 14 13 13 15 15 15 16 16 15 16 16 16 16 16 14 14 13 14 16 19 21 21 20 19 19 19 19 18 16 14 13 12 12 11 10 9 8 7 7
2 2 2 2 2 3 4 4 4 3 3 3 3 3 3 2 2 2 2 3 4 4 3 3 3 3 4 5 4 4 5 5 6 9 11 12 14 15 17 18 20 20 19 19 20 20 19 16 15 14 14 15 17 18 17 17 17 18 18 19 19 19 17 15 14 13 13 15 19 22 22 21 21 21 21 20 18 16 15 14 13 12 11 11 10 9 9
3 4 3 2 1 1 3 4 3 3 3 3 3 4 4 2 2 2 2 2 3 4 4 4 4 4 5 6 6 6 6 6 9 12 13 14 15 16 17 18 20 21 21 21 21 22 22 21 19 17 16 17 18 19 18 17 18 19 20 21 21 21 21 19 17 15 14 13 14 18 21 22 22 22 21 20 19 17 16 16 15 13 13 13 12 11 11
3 2 2 2 1 2 2 3 3 4 4 3 3 4 3 2 2 2 2 2 3 3 4 3 2 4 5 5 6 6 6 7 10 13 15 17 18 18 18 19 20 20 20 20 20 21 23 23 22 21 21 21 20 20 19 18 19 20 21 22 22 22 22 22 20 17 15 14 12 13 17 21 23 23 22 21 20 19 18 17 16 15 14 13 13 12 12
2 2 4 2 2 3 2 2 3 3 4 4 3 3 3 4 3 2 2 3 3 2 2 2 0 4 4 4 5 6 5 7 10 13 15 17 19 20 20 21 21 20 19 19 20 21 23 23 22 23 24 24 24 24 22 21 20 20 22 22 23 24 23 22 21 20 17 15 13 12 13 16 19 22 22 21 20 20 18 18 17 17 15 13 12 11 12
3 1 2 3 3 4 5 2 1 2 3 4 4 3 3 3 3 3 4 4 3 3 2 2 3 4 5 5 5 5 5 7 10 13 16 17 19 20 21 21 20 20 20 21 22 23 24 24 24 24 26 27 27 26 26 25 22 22 22 22 22 23 23 22 22 21 19 17 16 14 12 12 14 17 19 20 20 19 18 17 16 15 13 12 11 10 11
1 2 4 5 3 1 3 4 2 1 3 4 4 4 4 3 3 3 4 4 5 5 4 4 4 3 4 6 7 6 6 9 12 15 17 18 18 19 19 20 20 20 20 20 22 23 24 24 24 25 26 27 27 27 27 27 25 25 24 24 23 23 23 22 22 21 19 17 17 16 15 12 11 13 15 17 17 17 16 16 14 13 12 11 10 11 11
4 5 6 6 4 1 3 4 3 2 3 5 4 2 1 0 1 2 3 2 3 4 5 6 5 4 5 8 8 7 8 12 15 16 17 17 17 18 18 19 19 20 20 21 21 22 23 24 24 24 25 26 27 27 26 25 25 25 26 26 27 26 25 23 23 22 19 17 15 15 16 14 12 13 15 14 14 14 15 15 15 14 13 12 11 11 11
1 3 5 5 4 3 4 4 4 3 4 6 4 3 3 3 3 4 3 2 1 1 5 7 8 7 8 11 11 9 11 14 16 16 17 17 17 18 18 18 18 19 20 20 20 22 23 24 23 24 24 25 26 26 25 25 24 24 25 25 27 29 29 27 25 24 22 20 17 15 14 14 14 15 16 14 12 12 13 15 16 15 14 13 13 12 11
1 2 4 4 4 4 3 3 3 2 5 6 4 4 5 6 5 5 4 2 2 2 4 6 8 9 10 11 12 12 12 14 16 17 18 18 17 17 17 16 17 18 18 19 21 23 23 23 24 24 25 27 28 27 26 25 24 24 24 25 26 28 29 29 29 27 25 22 19 16 14 13 14 17 17 16 15 15 14 14 14 13 13 14 14 13 12
3 4 6 5 4 4 4 4 2 1 5 6 5 5 7 7 6 5 3 2 2 3 5 7 9 10 11 12 13 13 13 14 16 16 16 16 16 15 15 16 17 17 18 20 22 23 22 23 23 24 25 27 28 27 26 25 25 24 25 25 26 27 27 28 29 29 27 24 21 18 15 12 13 16 19 20 20 19 17 14 12 12 14 15 15 12 12
4 6 7 6 3 1 3 3 3 5 7 8 7 6 7 6 4 3 1 3 4 6 8 9 10 11 12 12 13 13 13 14 14 14 14 14 14 15 16 17 17 17 18 20 21 20 21 22 23 24 26 27 27 26 25 24 24 25 25 25 25 26 27 27 28 29 30 27 23 20 17 15 12 13 16 19 20 19 17 16 14 14 15 16 16 14 13
4 4 3 3 3 5 5 5 6 7 8 8 8 7 5 3 1 1 3 5 6 8 9 10 10 10 11 12 12 12 12 13 13 13 13 14 15 15 16 16 16 16 18 19 19 19 21 22 23 24 26 28 27 26 25 24 24 25 25 25 25 25 25 26 27 28 30 29 26 22 20 19 16 13 13 16 18 18 17 16 15 16 17 17 17 16 14
4 2 1 1 3 6 7 6 6 6 5 6 6 4 3 1 1 3 3 5 6 7 8 9 10 10 10 10 12 12 12 12 12 12 14 15 16 16 15 14 14 15 16 17 18 20 21 22 23 25 28 30 29 27 27 25 24 24 25 25 25 24 24 25 26 27 28 29 28 25 22 20 18 16 14 14 15 16 16 16 16 18 19 19 19 19 16
1 2 3 3 5 8 7 5 4 4 4 4 4 2 1 1 2 4 5 5 6 6 7 9 10 10 9 10 11 12 12 12 12 12 14 15 15 14 14 14 14 15 16 18 19 21 23 24 24 26 29 31 30 29 27 26 24 24 24 25 25 24 24 24 24 25 26 27 27 26 23 21 19 17 15 13 13 14 16 17 18 19 20 20 21 22 23
4 4 4 4 5 5 4 3 3 4 3 2 2 0 0 1 2 4 5 5 6 6 8 9 10 9 9 10 11 13 13 13 12 12 12 13 13 13 13 12 12 14 16 18 20 22 24 25 26 27 30 30 29 28 26 24 23 21 20 22 24 23 22 22 23 23 23 24 25 25 23 21 19 17 15 13 13 15 16 18 18 19 20 21 22 24 27
6 5 4 3 2 2 2 2 2 3 2 1 1 2 3 4 4 5 5 6 7 8 8 9 9 9 9 10 11 12 12 12 11 10 11 12 13 13 12 11 11 12 13 15 19 22 24 25 27 29 30 30 28 27 25 22 20 18 16 12 14 16 17 19 21 21 20 20 22 22 22 21 19 18 16 15 15 16 18 19 19 20 21 22 23 25 28
6 3 1 2 2 2 3 3 3 3 3 3 4 5 7 7 7 8 9 9 9 9 9 9 8 8 8 9 11 11 11 10 9 10 12 13 13 13 12 11 11 11 11 14 19 22 24 25 28 30 30 29 28 26 23 19 16 15 13 7 3 8 11 15 18 17 16 16 18 19 20 20 20 19 17 16 17 18 18 18 19 19 19 19 21 24 27
7 5 5 6 7 6 5 5 4 4 4 4 5 7 8 9 9 10 11 11 9 9 9 8 8 7 7 8 9 9 9 8 8 9 12 14 13 13 13 12 12 11 12 16 20 23 24 26 27 27 28 28 28 26 22 18 15 13 11 7 4 5 8 11 12 12 12 13 15 17 18 19 20 20 19 18 18 19 18 18 19 19 18 18 20 23 24
8 4 3 6 9 9 8 7 5 5 4 3 5 7 9 9 9 10 10 10 9 8 8 7 8 7 5 5 7 7 7 7 8 9 12 12 12 12 13 14 15 15 16 19 21 22 23 24 24 25 26 27 27 26 23 20 17 14 11 9 7 7 7 8 9 9 10 11 13 14 16 17 18 18 18 18 18 18 19 19 20 20 20 22 23 22 22
8 4 2 5 8 10 10 9 7 7 6 5 7 8 10 10 10 9 9 8 7 7 7 8 8 5 3 3 5 6 6 7 8 9 10 11 11 12 14 15 18 19 19 20 22 22 22 22 22 22 24 26 27 26 24 22 21 19 17 15 14 13 12 11 11 12 12 12 14 15 16 16 16 17 18 19 19 20 20 20 20 20 22 23 23 23 21
9 8 7 8 9 10 10 10 9 8 7 6 7 8 10 11 11 11 8 6 4 5 7 8 7 3 2 1 4 4 4 6 8 8 8 9 10 12 15 16 18 19 18 19 21 22 21 20 19 19 20 23 25 26 25 23 23 22 22 21 20 19 18 18 17 17 17 17 18 19 19 19 19 19 20 21 22 22 22 21 21 22 23 22 22 22 20
9 9 9 9 10 11 10 9 9 8 7 7 8 9 9 10 11 11 8 5 3 4 6 7 4 2 2 1 3 3 4 6 7 6 7 7 8 11 14 16 17 16 15 16 18 19 19 18 17 18 18 20 21 23 24 24 24 24 25 24 24 23 22 22 22 21 21 20 21 21 21 22 22 22 22 23 24 25 24 23 22 23 23 21 20 19 17
6 7 9 9 9 11 11 10 9 9 8 8 8 9 10 10 10 10 8 6 4 4 6 5 2 2 2 2 3 3 4 6 6 6 6 7 7 8 11 13 13 13 12 13 15 16 16 16 16 16 17 17 18 19 21 23 24 25 26 26 26 26 25 24 24 24 23 23 23 24 23 23 23 23 23 23 24 24 23 22 21 20 19 18 17 15 14
7 8 9 9 9 11 11 11 10 11 10 9 9 10 11 10 9 8 9 8 6 5 5 4 3 3 3 2 2 3 3 5 6 6 6 7 8 9 10 12 14 13 13 13 14 15 15 15 15 15 16 16 16 16 17 19 21 23 24 25 25 25 25 25 25 25 24 24 24 24 24 23 23 22 21 21 21 21 19 18 18 17 16 15 15 14 13
9 10 10 10 11 12 12 12 12 12 10 9 9 10 10 9 8 9 9 9 7 7 5 4 4 4 4 2 1 1 2 4 6 7 8 9 10 10 10 11 14 14 14 14 14 14 14 15 15 15 15 15 15 14 15 16 17 20 21 22 22 22 22 22 23 22 22 22 22 22 21 21 21 20 19 19 18 18 17 16 16 15 15 15 14 14 15
10 10 9 10 11 12 13 13 12 11 10 10 10 10 10 8 8 10 9 8 7 7 7 6 4 4 4 3 2 2 2 2 4 6 8 9 10 9 9 10 12 14 13 13 13 13 14 14 15 15 14 14 13 13 14 15 16 18 19 19 20 20 20 20 20 19 19 19 19 19 19 19 19 19 19 18 18 17 17 17 16 15 15 15 16 17 18
13 12 10 11 12 13 13 13 12 11 11 11 10 10 10 9 8 10 10 8 7 7 8 7 5 4 4 4 4 4 3 1 1 3 5 6 7 7 8 10 12 13 12 12 12 13 14 14 14 14 14 13 13 13 14 16 17 18 18 19 19 19 19 20 19 19 19 19 19 19 18 19 19 19 18 18 18 17 17 17 17 17 17 17 18 19 20
15 14 13 13 14 13 13 13 12 12 12 11 10 10 9 8 8 10 11 9 8 7 8 8 7 5 5 5 5 5 5 3 1 1 3 5 6 7 7 9 10 12 11 11 11 12 13 14 14 13 12 12 13 13 14 16 17 18 19 19 19 19 20 20 20 20 20 20 20 19 19 19 19 19 19 19 19 18 18 18 18 19 19 19 19 19 18
15 16 16 16 15 13 13 14 14 14 13 12 11 9 8 7 9 11 11 10 9 8 8 8 8 7 6 5 4 4 4 4 3 2 2 3 5 6 7 8 9 10 10 9 10 11 13 13 12 12 12 12 12 13 15 16 17 18 19 20 20 20 21 21 21 21 21 21 20 20 20 20 20 20 19 19 19 19 19 19 18 18 18 17 16 15 14
15 16 17 16 16 16 17 17 16 15 13 11 10 9 8 7 9 12 12 11 10 9 8 7 8 8 7 5 4 3 4 4 4 2 1 2 3 4 5 6 7 8 9 8 9 11 12 11 11 11 11 12 12 14 15 16 17 18 18 19 19 20 20 21 21 21 21 21 20 20 20 19 19 19 19 18 18 18 17 17 16 15 14 14 13 12 11
14 15 15 16 18 20 19 16 13 12 10 9 10 11 10 9 10 12 14 12 10 9 8 7 6 7 8 7 5 4 3 4 4 3 2 1 2 3 3 4 5 6 7 8 9 10 10 10 10 11 11 11 13 14 15 16 17 18 19 19 19 19 19 19 19 19 19 18 18 17 17 16 16 15 14 14 14 13 13 12 12 11 10 9 9 8 7
14 15 17 18 19 19 16 13 11 11 12 13 14 14 13 10 10 12 13 13 12 11 9 8 6 6 8 9 8 5 4 3 3 3 3 2 2 2 2 2 4 5 6 6 8 9 9 9 9 10 11 12 13 14 15 16 17 19 19 20 20 19 19 19 19 19 18 18 18 18 17 16 15 15 14 14 13 12 11 10 9 8 6 6 5 5 4
15 16 17 17 16 15 13 12 12 14 16 17 18 17 15 12 10 11 13 14 14 13 12 10 9 7 7 8 9 8 6 5 4 4 3 3 1 1 1 1 2 4 4 6 7 8 8 9 9 10 11 12 14 15 15 16 17 17 18 19 19 19 19 19 18 18 18 17 17 17 17 17 17 17 16 16 15 14 13 12 11 10 8 7 6 4 3
12 13 13 14 15 16 16 15 15 17 19 20 19 19 17 14 12 12 14 15 16 16 15 14 12 10 8 8 9 9 8 7 6 5 5 5 3 1 1 1 1 2 3 5 6 7 8 8 8 9 10 12 13 14 14 15 15 15 15 16 16 16 17 17 17 17 16 15 14 14 14 14 14 14 14 14 13 13 12 12 11 10 9 8 8 7 5
11 12 14 17 19 20 20 20 20 21 21 20 19 19 18 17 16 15 15 16 17 18 17 16 15 13 12 10 9 9 9 9 8 7 7 7 5 3 2 1 1 1 1 3 5 6 7 7 8 8 9 9 11 11 12 12 12 13 13 13 14 14 14 15 16 16 16 16 15 14 14 13 12 12 12 12 11 11 11 11 10 9 9 9 9 9 9
16 16 18 18 19 19 19 20 20 20 19 19 18 18 19 19 18 17 15 16 18 20 20 19 18 17 16 14 12 11 11 10 9 9 10 9 7 5 3 2 2 3 2 2 3 5 6 7 8 8 8 8 9 9 10 10 11 11 12 12 12 12 13 13 14 15 15 15 15 15 15 14 13 12 12 11 11 10 9 9 9 9 9 9 9 9 9
Wind_Direction
18 21 20 41 71 71 50 30 8 24 48 56 76 85 331 77 133 195 220 87 81 355 336 344 339 348 22 35 26 28 31 23 32 45 42 32 24 20 23 20 13 12 6 356 3 10 11 13 18 27 44 69 94 114 131 139 143 156 173 180 185 193 198 203 210 215 219 222 223 221 218 217 218 218 221 228 233 236 234 230 234 244 248 253 257 260 264
17 11 27 55 62 55 41 21 5 41 69 67 72 65 18 67 107 145 114 89 67 345 317 331 337 350 46 62 48 42 39 33 45 53 47 37 30 27 26 23 22 25 18 16 21 20 18 16 13 11 15 25 45 76 104 124 134 146 159 169 176 186 193 200 210 216 219 220 221 220 218 216 216 217 221 227 228 227 228 231 239 246 247 250 250 250 253
4 345 4 37 53 63 53 15 359 35 69 65 53 32 26 65 86 105 99 88 65 6 347 356 357 25 62 59 48 44 40 37 53 60 52 44 41 35 34 34 33 32 30 28 28 27 28 27 22 15 10 11 26 47 62 79 103 131 155 167 172 181 187 194 207 221 230 228 219 216 217 217 217 218 219 220 220 223 232 240 246 249 250 250 247 246 249
244 296 326 48 69 77 71 23 354 8 52 79 72 38 14 88 140 136 99 96 107 310 349 22 36 53 59 53 43 43 42 41 56 64 58 53 49 42 43 44 41 38 35 33 32 34 37 38 34 29 23 17 19 26 35 48 61 70 104 155 165 179 188 196 210 223 233 231 220 216 220 224 224 224 223 220 221 227 238 249 251 250 252 255 251 247 249
183 205 152 145 104 96 109 279 326 4 67 116 103 59 15 14 132 145 138 150 179 232 11 64 61 57 58 52 39 38 39 42 53 58 55 51 44 37 38 40 40 41 42 45 46 43 41 39 36 34 36 34 26 22 24 30 41 65 79 108 153 175 184 192 204 210 213 220 221 221 222 224 225 222 215 211 211 215 220 225 227 231 239 244 239 231 232
154 166 109 104 114 147 230 277 273 183 135 123 107 78 15 7 43 116 129 121 112 82 81 89 80 71 71 67 56 50 47 49 53 52 49 46 39 31 29 27 25 20 19 31 41 40 36 32 29 29 35 39 37 35 34 30 28 29 39 80 118 140 167 186 198 206 212 217 220 218 214 212 210 203 198 196 192 185 179 177 179 183 184 181 178 186 203
141 136 74 103 190 219 263 313 334 118 115 111 103 87 44 20 34 67 86 89 101 108 107 109 104 99 99 86 66 52 46 50 59 57 49 47 48 41 31 27 26 22 16 12 17 21 20 20 23 24 26 31 38 40 39 35 29 23 20 20 22 28 46 182 201 222 230 227 220 216 213 216 216 205 189 176 162 151 144 140 136 131 123 116 110 106 101
137 109 96 153 224 253 281 330 354 84 86 80 86 72 34 11 18 54 86 82 95 112 112 122 116 108 100 81 60 45 40 43 53 58 49 43 51 51 41 33 33 33 31 24 20 20 20 21 24 23 18 17 19 24 28 29 25 23 24 20 8 358 353 331 293 256 235 220 213 211 207 202 189 171 161 155 149 144 141 137 133 127 120 110 92 71 47
136 120 117 121 358 354 203 254 332 101 338 319 111 103 56 357 353 6 105 85 60 70 46 335 333 24 54 54 34 17 22 28 36 47 42 35 37 37 35 36 36 38 41 40 35 31 27 27 26 22 17 7 354 350 358 7 7 5 10 13 11 10 12 359 309 265 237 221 210 189 176 171 166 160 157 157 157 157 154 146 137 133 129 121 101 66 33
111 100 91 47 23 278 221 227 271 274 248 226 157 113 80 345 345 342 110 93 56 49 32 349 336 43 55 44 350 336 356 6 12 23 21 20 22 21 21 24 27 28 29 28 24 18 15 17 18 17 15 9 355 340 330 336 341 335 328 331 337 347 22 51 33 348 228 209 210 201 191 187 184 181 180 178 177 175 168 155 142 136 135 126 104 62 36
112 111 129 166 188 226 232 240 276 294 259 196 118 82 54 305 353 2 76 84 55 49 45 24 47 79 77 51 274 296 335 348 354 1 1 1 5 7 10 13 12 11 12 10 7 4 3 4 4 2 2 3 1 351 337 330 326 320 314 312 311 308 298 119 34 339 333 186 197 206 212 215 211 205 200 193 187 181 174 167 158 154 149 135 84 32 21
106 112 136 185 194 226 248 254 277 294 229 130 101 102 240 263 350 8 94 97 72 47 38 39 65 90 139 204 247 275 317 340 344 351 350 348 349 351 356 360 358 356 356 357 356 356 356 356 354 350 345 345 348 347 342 336 329 323 319 312 301 290 273 250 255 278 285 277 264 243 227 224 222 220 215 203 192 186 186 197 202 188 181 196 316 355 4
70 97 115 263 250 242 263 282 290 298 125 122 130 204 224 233 358 71 116 114 106 33 31 47 74 83 199 238 283 319 347 352 345 348 350 349 349 349 349 350 350 348 344 344 345 344 344 343 343 342 337 332 333 332 329 327 326 327 325 317 305 294 282 268 262 267 269 264 262 263 257 245 235 226 218 210 209 213 218 224 223 213 214 234 254 292 336
62 107 110 73 278 277 323 308 303 327 115 166 210 213 201 181 127 90 94 103 110 64 47 53 65 327 322 334 342 343 350 350 341 345 350 352 352 351 349 349 350 346 339 336 335 332 333 332 329 330 327 320 319 318 312 311 315 316 317 319 315 305 294 279 267 262 260 254 248 242 237 231 223 214 210 211 214 217 216 216 219 219 217 222 231 247 283
84 75 69 92 207 287 335 323 314 4 102 177 193 155 128 133 67 35 44 50 52 59 45 15 332 315 330 351 353 344 342 345 345 347 351 351 348 347 348 350 351 349 342 336 331 326 323 321 317 316 313 309 308 306 302 304 307 306 306 310 311 308 303 292 276 262 255 247 235 225 222 221 216 209 206 206 205 204 203 201 205 209 211 215 225 236 248
97 112 120 158 201 280 324 30 113 67 92 161 163 113 78 81 53 30 34 29 22 36 38 5 342 334 345 352 349 345 345 345 346 346 348 348 346 346 347 346 346 347 343 336 329 324 319 317 314 309 302 298 297 296 298 303 306 303 302 304 304 303 301 297 289 275 260 249 240 235 232 227 219 210 204 201 199 198 195 192 195 202 209 216 224 230 234
92 129 154 154 185 295 347 49 87 86 65 71 103 101 80 57 30 25 50 32 8 17 26 10 2 2 352 345 345 346 340 332 334 336 336 337 337 337 337 337 336 336 333 328 325 321 318 317 316 311 306 303 299 295 297 302 303 302 303 303 301 300 298 295 294 293 284 265 249 242 235 225 214 207 202 199 196 193 191 192 196 201 207 215 224 227 227
83 61 63 94 101 20 31 46 57 77 69 50 71 93 93 73 39 42 65 57 22 22 33 27 9 349 343 342 339 338 335 329 329 330 328 327 329 329 328 329 329 327 323 320 318 315 312 312 311 308 305 304 302 298 295 296 296 297 299 299 298 298 296 294 292 293 296 289 268 248 235 224 216 211 208 205 200 194 192 195 198 201 205 209 214 220 223
103 90 163 173 93 61 69 72 69 69 65 52 66 90 110 118 85 56 55 70 61 50 61 63 359 323 327 334 330 328 330 327 326 327 325 323 324 324 323 324 324 321 318 314 312 310 307 306 307 307 302 298 297 296 294 292 290 289 289 290 291 291 291 291 289 286 285 288 283 259 238 226 219 215 214 212 208 202 198 196 197 197 200 203 208 215 219
90 175 190 156 63 13 359 81 115 106 88 80 75 85 112 121 107 92 94 109 119 106 96 111 354 321 326 329 325 324 324 319 318 318 317 316 317 317 318 320 320 318 315 311 308 306 303 303 304 303 299 296 295 294 293 291 289 288 284 280 280 283 283 283 283 281 277 276 279 274 255 237 227 221 217 215 214 212 208 206 202 198 198 203 210 217 218
76 122 142 98 46 350 328 330 130 139 130 116 90 71 87 96 89 83 77 76 80 71 44 13 354 340 328 321 319 316 310 308 309 310 310 311 311 312 313 317 317 314 311 307 305 303 302 303 303 299 295 293 292 291 290 288 287 287 283 276 274 275 275 274 273 273 272 269 269 273 270 255 240 231 224 219 218 218 216 213 211 209 209 211 218 223 222
140 216 177 152 132 290 263 245 233 189 139 118 90 62 51 43 45 67 61 38 30 28 12 354 347 328 307 310 312 303 299 303 306 307 309 309 309 310 312 314 313 310 307 306 303 301 302 304 303 300 297 295 293 290 288 284 282 279 276 275 274 272 271 270 268 267 269 268 265 266 267 261 248 235 227 220 216 215 214 212 211 212 213 220 230 229 221
215 222 182 156 136 160 222 214 204 190 139 117 113 123 132 91 191 148 121 66 12 353 344 341 337 312 302 313 315 304 299 304 305 306 307 307 308 310 311 310 307 306 307 306 303 301 303 305 303 300 298 298 296 293 290 285 280 275 271 269 270 269 268 267 264 263 263 264 262 260 258 256 248 237 231 226 219 217 219 218 215 216 221 227 227 217 207
207 214 180 158 141 160 196 190 174 159 140 133 144 184 189 192 198 188 175 173 192 295 323 332 336 329 318 317 316 305 301 306 310 310 310 308 307 307 307 305 305 306 308 308 305 304 304 303 301 299 297 297 297 296 294 290 283 275 269 264 262 262 262 261 261 261 260 258 258 257 253 250 244 238 233 231 228 228 229 226 222 223 227 222 208 196 199
99 164 163 152 142 140 139 127 111 132 153 153 158 184 188 191 198 196 195 198 203 250 294 310 325 333 326 318 314 308 304 308 313 313 310 308 307 306 306 307 309 311 310 308 306 307 307 305 304 302 299 297 298 297 296 294 286 276 268 262 257 257 257 256 256 258 257 254 253 254 255 251 243 238 237 237 236 235 234 231 227 223 217 206 195 192 198
131 125 107 90 88 100 103 94 77 156 186 175 165 179 187 186 184 184 188 221 273 293 298 298 311 325 327 322 318 313 308 310 313 311 308 306 307 309 310 311 311 310 310 309 310 311 311 310 309 306 302 302 304 302 299 295 288 278 269 262 257 255 253 252 251 252 252 251 247 247 252 255 248 240 237 235 232 226 218 211 208 205 199 193 190 191 191
137 130 109 90 80 131 179 181 174 184 190 180 169 176 182 173 165 181 265 302 304 312 317 315 316 321 325 328 326 318 313 314 315 313 311 309 310 312 313 311 311 312 314 315 316 315 314 313 312 308 305 308 311 309 303 295 286 277 270 263 257 253 250 248 247 246 247 247 244 240 242 247 250 247 239 232 228 222 214 206 196 188 184 184 184 184 186
151 158 118 114 181 202 196 181 167 165 172 173 169 171 174 167 143 328 311 308 315 322 324 327 329 323 322 329 332 327 323 324 321 316 315 313 313 316 315 311 312 318 320 319 317 318 319 319 315 311 312 317 318 314 308 299 287 277 268 261 254 249 245 242 241 241 242 243 241 238 236 238 246 253 248 238 231 224 218 211 198 185 179 179 177 175 178
182 199 64 85 157 151 137 135 147 153 160 169 166 156 149 141 356 331 293 291 309 316 316 325 333 329 326 333 337 332 328 325 319 316 317 318 320 322 320 315 316 322 325 324 325 327 327 324 321 320 322 326 325 321 315 307 294 280 269 259 250 243 238 236 236 236 237 238 237 235 234 236 241 246 247 242 234 223 215 208 199 189 181 176 171 167 165
161 92 96 103 114 119 123 141 171 181 176 162 150 125 118 152 292 293 284 288 296 294 301 317 327 328 331 339 341 335 327 322 319 319 323 326 329 330 330 329 329 331 332 333 334 334 332 331 328 327 328 330 330 328 324 317 305 292 278 262 250 240 233 229 230 231 233 233 232 231 230 232 235 238 239 238 231 221 212 206 198 189 180 174 171 167 164
81 67 96 113 116 127 143 167 185 204 203 145 119 16 294 210 254 269 275 281 280 284 300 313 317 320 328 335 338 337 334 329 326 327 332 339 343 344 345 344 339 332 330 332 337 340 339 337 333 332 334 338 339 337 334 329 321 314 297 271 251 239 231 227 225 225 226 227 227 226 224 224 225 226 228 226 219 212 205 199 193 185 180 176 173 168 164
88 68 79 91 101 134 177 183 190 221 234 159 152 242 245 233 241 255 264 271 277 285 296 301 306 316 327 331 333 337 340 336 330 330 340 350 354 353 355 355 347 338 336 341 346 348 346 341 339 341 345 348 349 349 347 342 338 338 332 296 250 231 226 222 219 218 219 221 221 219 216 214 214 213 214 214 209 203 196 191 185 182 179 177 172 166 164
111 101 134 175 179 210 237 233 218 221 229 222 228 246 252 250 249 256 265 272 280 287 288 290 300 315 326 330 331 336 342 344 339 336 344 355 359 360 1 2 356 352 355 357 358 358 356 351 348 351 356 358 359 0 1 357 355 0 4 357 239 210 209 209 208 208 208 211 213 212 209 208 206 204 204 204 200 195 190 184 179 176 173 170 166 163 162
164 180 199 195 187 191 205 213 214 222 238 252 255 257 263 265 264 267 275 278 280 283 286 293 305 314 322 327 330 336 344 346 341 337 343 353 1 4 5 7 8 9 14 12 8 6 4 1 358 0 5 7 8 11 14 15 18 23 28 40 92 154 178 188 193 194 194 196 199 200 200 199 197 195 193 190 186 184 179 173 170 167 159 151 152 156 159
186 190 211 205 199 195 190 188 194 204 214 247 265 267 276 282 280 280 282 280 278 286 298 313 320 318 314 319 326 335 341 340 336 339 345 354 3 8 11 15 15 15 20 20 14 9 7 6 7 10 15 16 18 21 27 32 39 45 51 61 82 110 136 154 161 162 165 169 171 173 176 178 179 179 176 171 169 168 164 160 160 156 146 141 146 153 158
196 189 190 197 198 198 197 198 202 202 206 230 258 275 290 300 302 300 292 284 288 306 321 329 325 313 295 309 323 331 339 341 345 352 356 359 7 15 19 21 17 15 16 16 12 10 11 13 15 19 22 25 27 30 36 43 50 57 65 72 79 88 97 107 116 122 128 133 135 138 144 148 150 152 153 151 150 151 149 148 148 145 141 142 149 154 155
210 204 194 187 186 193 203 210 215 220 227 246 264 278 292 304 313 315 305 290 298 321 328 330 324 295 232 300 322 325 342 351 356 3 6 8 18 28 30 26 20 15 11 7 5 8 12 16 19 24 29 32 36 39 44 51 57 63 69 74 78 82 87 91 96 100 106 112 117 119 121 124 125 128 132 135 136 137 137 137 138 138 140 145 149 150 149
215 211 206 198 193 198 210 220 227 232 240 256 270 282 295 306 312 312 301 278 275 304 316 325 325 253 207 319 335 335 354 0 3 9 12 14 26 36 37 31 21 13 6 2 5 10 14 16 19 25 32 37 43 48 54 59 64 68 72 75 78 81 84 86 89 93 97 101 104 106 108 110 111 112 117 121 124 125 127 129 131 134 138 142 145 146 148
209 207 208 208 205 209 217 226 233 237 244 256 270 289 304 310 306 299 285 266 254 276 297 307 290 211 223 318 351 3 8 7 6 7 9 12 22 37 43 39 30 20 13 12 15 18 18 17 20 26 33 39 46 54 61 67 70 73 75 78 80 82 84 86 89 91 93 97 100 102 103 105 106 105 106 109 112 114 118 123 129 133 136 140 144 147 149
213 210 208 208 210 215 221 226 234 241 248 255 266 286 302 305 295 282 275 264 252 252 272 282 264 236 240 278 9 32 28 24 22 20 19 22 29 35 37 35 32 30 26 23 24 25 22 20 23 30 35 39 44 52 62 71 76 78 80 81 82 83 85 87 89 90 92 95 97 99 101 103 104 104 103 104 106 110 115 123 129 134 139 144 147 150 150
228 225 215 209 212 218 222 227 234 242 251 259 267 283 298 298 279 265 269 270 259 245 243 257 268 261 246 228 152 93 73 52 42 37 33 31 29 26 20 18 22 25 23 21 24 27 26 24 27 34 38 42 45 49 57 67 75 80 83 85 86 86 87 88 89 90 92 94 95 98 101 103 104 105 107 109 112 117 125 132 136 141 147 149 149 148 147
231 231 222 217 220 224 226 228 234 244 255 263 271 286 299 292 265 256 265 275 264 243 233 238 256 259 241 222 201 163 130 79 50 43 39 34 28 17 6 8 17 21 18 17 23 29 30 30 33 36 40 45 50 54 58 64 71 76 80 84 86 87 89 91 93 95 98 100 101 102 105 107 108 108 111 114 118 122 129 135 138 141 144 144 143 143 143
228 229 226 224 224 226 229 231 234 244 256 263 271 287 297 286 256 248 257 263 255 237 226 226 234 237 229 225 223 213 202 191 50 40 36 35 33 23 12 11 16 17 15 17 25 33 35 37 38 39 41 46 52 59 65 70 74 77 79 82 85 87 89 92 95 98 101 103 105 106 108 110 112 113 115 117 119 123 127 130 132 133 135 137 138 139 139
225 225 229 234 234 231 231 233 235 242 252 258 268 287 298 281 247 241 249 254 250 238 228 224 226 227 225 230 235 232 223 217 224 346 2 12 22 24 20 15 14 15 17 23 32 38 42 42 42 44 46 50 54 59 66 72 76 79 81 83 86 88 89 91 93 95 97 99 101 105 108 110 112 114 116 117 119 121 122 123 124 127 129 131 133 134 134
227 227 231 236 238 235 232 234 238 242 247 255 265 282 294 277 246 238 241 246 249 248 240 233 232 230 227 231 245 246 234 227 235 270 334 358 3 8 14 13 10 12 19 28 38 46 48 48 47 49 51 55 58 63 67 71 75 77 80 82 83 85 87 89 90 92 95 97 98 100 102 105 107 109 111 113 115 116 117 118 120 123 126 128 130 130 131
234 235 235 235 239 242 242 243 245 247 251 257 264 270 274 265 246 236 234 237 246 253 255 251 246 241 234 229 231 236 230 225 230 248 308 352 349 355 6 9 7 11 21 34 45 51 52 52 52 54 56 59 63 67 70 73 74 76 77 80 81 83 85 88 89 90 92 93 95 96 98 99 100 102 104 106 108 109 111 113 115 116 118 120 123 124 126
236 237 235 235 241 246 248 246 244 242 241 243 249 253 257 259 248 237 232 233 237 245 253 257 255 249 241 234 230 234 235 226 221 225 240 292 333 346 357 3 7 15 28 42 52 55 55 54 55 58 61 64 69 72 73 74 76 76 76 76 78 81 84 86 88 89 90 90 91 92 93 94 95 97 100 102 104 106 109 111 111 111 115 119 121 123 127
237 237 238 240 244 248 246 238 229 226 228 231 236 242 249 254 249 238 231 227 227 232 238 243 246 247 242 237 237 242 244 237 231 230 230 238 291 330 340 355 10 23 38 53 60 62 61 59 59 63 66 70 74 77 79 80 80 79 78 78 79 82 85 86 87 89 90 91 91 90 89 89 90 93 95 97 99 102 105 107 108 109 114 121 127 137 148
245 246 247 244 243 243 237 225 219 226 233 235 235 238 241 242 238 231 226 223 222 224 227 229 232 235 237 237 239 239 237 241 257 257 228 209 215 331 340 344 4 22 41 56 64 66 67 66 67 69 72 76 79 81 84 85 84 83 82 82 83 85 87 89 89 89 89 90 90 90 90 90 90 90 91 91 93 94 95 95 94 91 90 92 96 108 126
248 248 247 243 239 235 230 223 224 232 237 237 234 234 233 228 221 221 223 222 221 222 225 227 229 230 229 232 236 234 231 240 256 252 214 192 184 175 191 234 305 25 49 59 65 69 70 73 76 76 76 78 83 85 86 86 86 84 83 84 85 86 87 88 87 85 85 85 86 89 91 92 92 91 89 88 88 87 87 86 86 85 84 85 87 92 101
253 248 249 251 248 242 237 234 236 241 243 241 236 232 228 223 222 225 226 221 218 219 221 223 226 227 227 227 228 225 223 229 236 224 200 190 189 188 179 191 209 193 103 73 71 74 76 80 86 87 83 84 89 91 89 87 86 84 84 86 88 88 90 89 85 82 80 80 81 82 84 86 88 89 88 88 89 90 89 88 87 87 87 85 83 83 86
265 259 258 258 255 250 245 243 243 244 244 243 238 231 225 224 225 226 224 221 220 220 221 223 226 228 228 226 224 219 215 215 215 206 195 192 197 202 199 198 203 200 190 141 96 92 90 91 95 99 96 93 94 96 97 95 91 87 86 88 90 91 93 92 89 85 82 80 80 79 79 78 80 83 84 85 88 90 91 90 88 83 81 81 80 78 78